[[{"header":{"parameterUnit":"m.s-1","parameterCategory":1,"la1":30.2991,"la2":30.254,"lo1":-89.0895,"lo2":-89.0444,"dy":0.0017,"dx":0.0017,"nx":28,"ny":28,"refTime":"2023-10-19T21:00:00:Z","depth":0,"parameterNumber":2,"parameterNumberName":"U-component_of_WINDS"},"data":[0,0,0,0,0,0,0,0,0,0,0,0,0,0,0,0,0,0,0,0,0,0,0,0,0,0,0,0,0,0,0,0,0,0,0,0,0,0,0,0,0,0,0,0,0,0,0,0,0,0,0,0,0,0,0,0,0,0,2.5373,2.5375,0,2.555,2.5552,2.5554,2.554,2.5537,2.5534,2.5532,2.5717,2.5724,2.5732,0,0,0,0,0,0,0,0,0,0,0,0,0,2.5027,2.5034,2.5373,2.5375,2.5378,2.555,2.5552,2.5554,2.554,2.5537,2.5534,2.5531,2.5715,2.5723,2.5732,0,0,0,0,0,0,0,0,0,0,0,0,0,2.5188,2.5036,2.5373,2.5391,2.5395,2.5549,2.5552,2.5555,2.5541,2.5537,2.5533,2.5529,2.5712,2.5722,2.5733,2.5882,0,0,2.5767,2.5772,0,0,0,0,0,0,0,0,2.5179,2.5201,2.5386,2.539,2.5394,2.5518,2.5498,2.5665,2.5542,2.5485,2.5532,2.5527,2.5654,2.567,2.5712,2.5891,2.5899,2.5768,2.5775,2.578,2.5783,0,0,0,0,0,0,0,2.5168,2.5193,2.5443,2.5389,2.5394,2.5392,2.541,2.5529,2.5591,2.549,2.5489,2.551,2.5656,2.5701,2.5716,2.5902,2.5768,2.5778,2.5785,2.5789,2.6212,2.6216,0,0,0,0,0,0,2.5152,2.5184,2.5438,2.5449,2.5274,2.5401,2.5422,2.5483,2.5589,2.5601,2.5513,2.5509,2.5684,2.5703,2.5723,2.5905,2.578,2.579,2.5797,2.6208,2.6213,2.6218,0,0,0,0,0,0,2.5145,2.5175,2.5431,2.5316,2.5348,2.5411,2.548,2.5488,2.5534,2.5607,2.5618,2.5549,2.5682,2.5707,2.5843,2.5911,2.5795,2.5805,2.6202,2.6209,2.6216,2.6269,0,0,0,0,0,0,2.5135,2.5172,2.5229,2.5317,2.5355,2.5547,2.5484,2.5495,2.5553,2.5548,2.5643,2.5655,2.5681,2.5826,2.5854,2.5924,2.5814,2.6196,2.6205,2.6213,2.6262,2.6277,2.629,0,0,0,0,0,2.5122,2.5238,2.5232,2.5262,2.5427,2.555,2.5572,2.5598,2.5558,2.5616,2.5663,2.5652,2.5898,2.584,2.5871,2.5946,2.6192,2.6203,2.6213,2.6255,2.6274,2.629,0,0,0,0,0,0,2.5158,2.525,2.5244,2.5391,2.5463,2.5548,2.5622,2.5617,2.5703,2.5696,2.5726,2.5748,2.5884,2.5928,2.5862,2.6096,2.604,2.6057,2.6062,2.608,2.6094,2.6081,2.5823,0,0,0,0,0,2.5182,2.5274,2.535,2.5473,2.5509,2.5559,2.5614,2.5628,2.5704,2.5735,2.5791,2.5867,2.5961,2.6023,2.6114,2.6267,2.6288,2.6334,2.6348,2.636,2.6374,2.6459,2.6481,2.6252,2.6252,2.6251,0,0,2.5235,2.5296,2.5353,2.5481,2.5538,2.5634,2.5585,2.5688,2.5759,2.5751,2.5882,2.5926,2.6012,2.6157,2.6224,2.6198,2.6442,2.6373,2.6381,2.639,2.6472,2.6494,2.6513,2.6259,2.6257,2.6256,0,0,2.5379,2.5434,2.5542,2.56,2.5686,2.5719,2.5745,2.583,2.5859,2.599,2.5986,2.6071,2.6234,2.6295,2.6348,2.6513,2.6507,2.6542,2.6617,2.67,2.6718,2.6734,2.6794,2.6815,2.6556,2.6557,2.6557,0,2.5433,2.5576,2.5599,2.5703,2.576,2.5754,2.5865,2.592,2.6032,2.6072,2.6041,2.6244,2.6302,2.6461,2.6501,2.6544,2.6575,2.6532,2.6713,2.6729,2.6745,2.6803,2.6825,2.656,2.656,2.656,2.6559,0,2.5639,2.5737,2.5815,2.5921,2.5987,2.6093,2.6134,2.6198,2.6205,2.6241,2.6376,2.6444,2.6549,2.6588,2.6597,2.6749,2.673,2.6706,2.6651,2.677,2.6825,2.6847,2.6566,2.6565,2.6563,2.6562,0,0,2.5812,2.5928,2.5957,2.6005,2.6099,2.6176,2.6283,2.6383,2.6438,2.6515,2.6606,2.6742,2.672,2.678,2.6796,2.6868,2.6996,2.6835,2.6837,2.6863,2.7168,2.7186,2.7211,2.6991,2.6995,2.6999,2.7161,0,2.5966,2.6153,2.6177,2.6343,2.6435,2.643,2.6523,2.6591,2.6628,2.6712,2.6752,2.6849,2.6812,2.6848,2.6918,2.6965,2.7058,2.6954,2.7077,2.7082,2.7057,2.724,2.726,2.741,2.7182,2.7186,2.7189,0,2.6172,2.6253,2.6428,2.6508,2.6548,2.6631,2.6725,2.6804,2.6882,2.6903,2.6969,2.6976,2.7087,2.7026,2.7181,2.7109,2.7161,2.7192,2.7198,2.7212,2.7143,2.726,2.7458,2.7481,2.7222,2.722,2.7217,0,2.6281,2.6434,2.6558,2.66,2.6697,2.6755,2.6799,2.6872,2.6931,2.7014,2.7052,2.7147,2.72,2.7274,2.7306,2.7259,2.7459,2.7401,2.7481,2.7481,2.7525,2.7522,2.7736,2.7556,2.7556,2.7555,2.7555,0,2.6451,2.6559,2.6609,2.6685,2.6806,2.6832,2.6951,2.6993,2.7058,2.7143,2.7146,2.7226,2.7264,2.7351,2.7377,2.7501,2.7525,2.7546,2.7552,2.7547,2.7544,2.7582,2.7573,2.7561,2.756,2.7559,2.7558,0,2.6595,2.6632,2.6768,2.6848,2.687,2.6956,2.7025,2.71,2.7134,2.7243,2.727,2.7325,2.7427,2.7467,2.7592,2.761,2.7753,2.7751,2.7727,2.7729,2.7807,2.78,2.8054,2.8089,2.7885,2.7887,2.7889,0,2.6702,2.6784,2.6872,2.6929,2.6974,2.7065,2.7124,2.7153,2.7216,2.731,2.7374,2.7475,2.7558,2.7721,2.7774,2.787,2.787,2.7952,2.7885,2.7876,2.7873,2.7868,2.7876,2.7965,2.7967,2.7969,2.797,0,2.6888,2.6901,2.6986,2.7078,2.7148,2.7222,2.7294,2.7341,2.7381,2.7451,2.7554,2.7618,2.7745,2.7846,2.7945,2.7991,2.7989,2.7991,2.8015,2.8011,2.7994,2.8005,2.7762,2.7986,2.7984,2.7983,2.7982,2.7982,2.7017,2.7089,2.7163,2.7257,2.7314,2.738,2.7455,2.7498,2.7584,2.7688,2.77,2.7812,2.7888,2.8019,2.8069,2.8158,2.8136,2.8171,2.818,2.8188,2.8194,2.7979,2.8176,2.8176,2.8175,2.8175,2.8175,0,2.7203,2.7249,2.7336,2.7435,2.751,2.7498,2.7577,2.7641,2.7738,2.7808,2.7889,2.8008,2.8106,2.8165,2.8264,2.8323,2.8325,2.8348,2.8345,2.8356,2.8207,2.8177,2.8346,2.8346,2.8346,2.8346,2.8345,2.8345,2.7309,2.7432,2.7454,2.7605,2.7651,2.7759,2.7805,2.7867,2.7923,2.8055,2.8136,2.8173,2.8239,2.8343,2.8432,2.8447,2.8484,2.851,2.8524,2.8384,2.8366,2.835,2.8321,2.8517,2.8518,2.8665,2.8666,2.8667]},{"header":{"parameterUnit":"m.s-1","parameterCategory":1,"la1":30.2991,"la2":30.254,"lo1":-89.0895,"lo2":-89.0444,"dy":0.0017,"dx":0.0017,"nx":28,"ny":28,"refTime":"2023-10-19T21:00:00:Z","depth":0,"parameterNumber":3,"parameterNumberName":"V-component_of_WINDS"},"data":[0,0,0,0,0,0,0,0,0,0,0,0,0,0,0,0,0,0,0,0,0,0,0,0,0,0,0,0,0,0,0,0,0,0,0,0,0,0,0,0,0,0,0,0,0,0,0,0,0,0,0,0,0,0,0,0,0,0,1.5569,1.557,0,1.5646,1.5647,1.5648,1.5603,1.5601,1.5599,1.5597,1.568,1.5684,1.5689,0,0,0,0,0,0,0,0,0,0,0,0,0,1.5391,1.5394,1.5569,1.557,1.5571,1.5646,1.5647,1.5648,1.5604,1.5601,1.5598,1.5596,1.5679,1.5684,1.5689,0,0,0,0,0,0,0,0,0,0,0,0,0,1.5468,1.5396,1.5569,1.5558,1.5558,1.5646,1.5647,1.5648,1.5604,1.5601,1.5598,1.5595,1.5677,1.5683,1.569,1.5794,0,0,1.5709,1.5712,0,0,0,0,0,0,0,0,1.5464,1.5475,1.5559,1.5559,1.5559,1.5612,1.5614,1.5697,1.5605,1.5587,1.5597,1.5593,1.566,1.5668,1.569,1.5798,1.5801,1.571,1.5713,1.5716,1.5718,0,0,0,0,0,0,0,1.5459,1.5471,1.56,1.556,1.556,1.5551,1.5559,1.563,1.5641,1.5588,1.5585,1.5595,1.566,1.5684,1.5691,1.5803,1.5709,1.5715,1.5719,1.5722,1.6005,1.6008,0,0,0,0,0,0,1.5453,1.5467,1.5597,1.5602,1.5502,1.5557,1.5565,1.5598,1.564,1.5643,1.5597,1.5592,1.5674,1.5684,1.5694,1.5822,1.5716,1.5722,1.5726,1.6001,1.6006,1.601,0,0,0,0,0,0,1.545,1.5465,1.5594,1.5534,1.5549,1.5564,1.5601,1.5601,1.5625,1.5647,1.5649,1.5619,1.5672,1.5685,1.577,1.5824,1.5725,1.5731,1.5997,1.6003,1.6008,1.6077,0,0,0,0,0,0,1.5445,1.5464,1.5502,1.5535,1.5553,1.5667,1.5604,1.5605,1.5635,1.563,1.5668,1.5671,1.5671,1.5761,1.5776,1.5831,1.5736,1.5992,1.5999,1.6006,1.607,1.6084,1.6097,0,0,0,0,0,1.5438,1.5519,1.5505,1.5521,1.5601,1.567,1.5681,1.5677,1.564,1.568,1.5694,1.567,1.5815,1.577,1.5787,1.5845,1.5989,1.5997,1.6005,1.6064,1.6082,1.6096,0,0,0,0,0,0,1.5494,1.5523,1.5507,1.56,1.5633,1.5663,1.5713,1.5695,1.574,1.5733,1.5727,1.5737,1.5826,1.5843,1.5792,1.595,1.5896,1.5909,1.5935,1.5952,1.5965,1.596,1.5741,0,0,0,0,0,1.5517,1.5569,1.5592,1.5673,1.569,1.5699,1.5729,1.5723,1.5757,1.5771,1.5792,1.5828,1.5882,1.5917,1.5968,1.6072,1.6082,1.612,1.6133,1.6144,1.6156,1.6216,1.6234,1.6037,1.6037,1.6037,0,0,1.5565,1.5587,1.5621,1.5684,1.5709,1.5766,1.5711,1.5772,1.5816,1.5781,1.5863,1.588,1.592,1.6016,1.6059,1.6033,1.6212,1.6155,1.6163,1.6169,1.6226,1.6245,1.6261,1.6043,1.6042,1.6041,0,0,1.5682,1.5703,1.5774,1.58,1.5838,1.5843,1.586,1.5893,1.5903,1.5984,1.5961,1.6013,1.6105,1.6135,1.6163,1.6294,1.6275,1.6311,1.6381,1.644,1.6455,1.6469,1.6519,1.6537,1.6321,1.6322,1.6322,0,1.5738,1.5821,1.5813,1.5877,1.5907,1.5878,1.5951,1.5977,1.603,1.6053,1.6022,1.6139,1.6164,1.6268,1.6301,1.6322,1.6345,1.6307,1.6453,1.6467,1.648,1.6528,1.6547,1.6326,1.6326,1.6325,1.6325,0,1.589,1.5948,1.6001,1.6052,1.6088,1.6156,1.6161,1.6199,1.619,1.62,1.6286,1.6314,1.6372,1.6395,1.6387,1.65,1.6483,1.6453,1.64,1.6503,1.6549,1.6567,1.6332,1.6331,1.6329,1.6328,0,0,1.6045,1.6091,1.6111,1.6136,1.6176,1.6222,1.6291,1.6346,1.638,1.6418,1.6477,1.6557,1.653,1.6561,1.6557,1.6608,1.6715,1.6572,1.6573,1.6601,1.6845,1.687,1.6891,1.6701,1.6705,1.6707,1.6843,0,1.6167,1.6285,1.6281,1.6393,1.6448,1.6422,1.6482,1.6515,1.6526,1.6577,1.659,1.6648,1.6606,1.6625,1.6674,1.6691,1.6764,1.6681,1.676,1.6763,1.6754,1.6914,1.6939,1.7065,1.686,1.6863,1.6865,0,1.6326,1.6369,1.6486,1.6521,1.6544,1.6598,1.665,1.6697,1.6735,1.674,1.6776,1.6764,1.6837,1.678,1.6882,1.6826,1.6858,1.6871,1.6876,1.6886,1.6822,1.6931,1.7105,1.7126,1.6892,1.689,1.6888,0,1.6432,1.6519,1.6601,1.6622,1.6664,1.6703,1.6723,1.6757,1.6791,1.6837,1.686,1.6914,1.6944,1.6988,1.6992,1.6949,1.7096,1.7039,1.7105,1.7106,1.714,1.7138,1.7325,1.7155,1.7155,1.7154,1.7154,0,1.6571,1.6644,1.6649,1.67,1.6783,1.6778,1.6861,1.6877,1.6908,1.6964,1.6944,1.6997,1.6998,1.7053,1.7056,1.7143,1.7156,1.7164,1.7165,1.7168,1.7167,1.7191,1.7183,1.716,1.7158,1.7157,1.7157,0,1.6703,1.6709,1.6797,1.683,1.684,1.69,1.6929,1.6979,1.6988,1.7059,1.7076,1.7092,1.7156,1.7164,1.7238,1.7241,1.7346,1.7336,1.7334,1.7333,1.7401,1.7396,1.7612,1.7642,1.7449,1.7451,1.7453,0,1.6793,1.6849,1.6887,1.6923,1.6944,1.7001,1.7036,1.7034,1.7072,1.7121,1.7166,1.7228,1.7278,1.7382,1.7402,1.746,1.7453,1.7525,1.7462,1.7464,1.7459,1.7456,1.7464,1.7538,1.754,1.7542,1.7543,0,1.6952,1.6953,1.7003,1.7056,1.7099,1.714,1.7179,1.721,1.7213,1.7258,1.7322,1.7361,1.7438,1.7501,1.7559,1.7581,1.7565,1.7563,1.7582,1.7587,1.7584,1.759,1.737,1.7558,1.7557,1.7556,1.7555,1.7554,1.7068,1.7118,1.7154,1.7212,1.7241,1.7279,1.7328,1.7344,1.7398,1.7459,1.7455,1.7528,1.7568,1.7643,1.767,1.7729,1.7706,1.7733,1.774,1.7748,1.7756,1.7573,1.7739,1.7739,1.7738,1.7738,1.7738,0,1.723,1.7252,1.7305,1.736,1.7407,1.7385,1.7428,1.7469,1.7533,1.757,1.762,1.7696,1.7758,1.7783,1.7844,1.7887,1.7881,1.7903,1.7902,1.7908,1.7772,1.775,1.7907,1.7907,1.7907,1.7907,1.7907,1.7907,1.7319,1.7403,1.7409,1.7509,1.753,1.7601,1.7628,1.7664,1.7694,1.778,1.7831,1.7846,1.788,1.7944,1.8001,1.8007,1.8032,1.8059,1.8062,1.7934,1.7917,1.7901,1.7881,1.8063,1.8063,1.8194,1.8195,1.8196]}]]